Weather in Tishinka

Russia / Altai Krai     51°48′16″N   81°19′16″E
temp.,
°C
wind,
m/s
gust,
m/s
humid.,
%
clouds,
%
prec.,
mm/h
press.,
hPa
HPBL,
m
18 april, sun
sun1801:00+3sse22820 0.0 102219
04:00+2ssw33850 0.0 102144
07:00+1sw35880 0.0 102174
10:00+7sw46590 0.0 1020529
13:00+11sw68395 0.0 10171695
16:00+14wsw8113559 0.0 10142431
19:00+14sw610385 0.0 10121079
22:00+10ssw615530 0.0 1010295
19 april, mon
mon1901:00+11sw6145493 0.0 1008339
04:00+8wnw71383100 0.9 1010820
07:00−2nnw7126570 1.9 1017625
10:00−2n5655100 0.1 1021946
13:00+1n4443100 0.1 10211337
16:00+3n443597 0.0 10211808
19:00+2n5535100 0.0 10211786
22:00−1n59415 0.0 1023510
20 april, tue
tue2001:00−3nne68448 0.0 1024730
04:00−4nne46455 0.0 1025887
07:00−4nne4647100 0.0 10251131
10:00−3nne5537100 0.0 10261636
13:00−1n553016 0.0 10261876
16:00+1nne552943 0.0 10252036
19:000n55305 0.0 10251910
22:00−3n37450 0.0 1026173
21 april, wed
wed2101:00−3n48480 0.0 1025278
04:00−3n36490 0.0 1024207
07:00−3n25517 0.0 1024202
10:00−1nne233699 0.0 10231025
13:00+2nw3330100 0.0 10221398
16:00+4nnw233140 0.0 10211736
19:00+4n2336100 0.0 10211822
22:00+1nne225599 0.0 102331
22 april, thu
thu2201:000n347683 0.1 1024195
04:00−1nne347196 0.0 1026111
07:000nne475894 0.0 1029321
10:00+2ne6844100 0.0 10311759
13:00+5nne7836100 0.0 10322385
16:00+6nne7834100 0.0 10332488
19:00+5nne783892 0.0 10352175
22:00+2nne6115311 0.0 1038554